Regional Weather Roundup
Issued by NWS Northern Indiana

Home | Current Version | Previous Version | Text Only | Print | Product List | Glossary Off
Versions: 1 2 3 4 5 6 7 8 9 10 11 12 13 14 15 16 17 18 19 20 21 22 23 24 25 26 27 28 29 30 31 32 33 34 35 36 37 38 39 40 41 42 43 44 45 46 47 48 49 50

598
ASUS43 KIWX 222201
RWRIWX

KIWX WEATHER ROUNDUP
NATIONAL WEATHER SERVICE NORTHERN INDIANA
600 PM EDT TUE AUG 22 2017

NOTE: "FAIR" INDICATES FEW OR NO CLOUDS BELOW 12,000 FEET WITH NO
SIGNIFICANT WEATHER AND/OR OBSTRUCTIONS TO VISIBILITY.

* THESE STATIONS ARE NOT UNDER NWS QUALITY CONTROL. THEY ALSO MAY NOT
  REPORT WEATHER SUCH AS PRECIPITATION OR FOG.

INZ001>027-222300-
NORTHERN INDIANA

CITY           SKY/WX    TMP DP  RH WIND       PRES   REMARKS
GARY*          MOSUNNY   82  50  32 W21       29.90S
MICHIGAN CITY* PTSUNNY   73  61  64 N15G21    29.92R
SOUTH BEND     PTSUNNY   73  63  70 NW17G31   29.90R
GOSHEN         MOSUNNY   75  58  55 NW17      29.89R
MONTICELLO*    MOSUNNY   77  64  63 W13G21    29.91R
FORT WAYNE     PTSUNNY   76  65  68 NW13      29.88R
PERU/GRISSOM   MOSUNNY   78  65  63 NW18G24   29.89R

$$
INZ028>050-222300-
CENTRAL INDIANA

CITY           SKY/WX    TMP DP  RH WIND       PRES   REMARKS
LAFAYETTE      MOSUNNY   76  65  68 NW12G21   29.92R
KOKOMO*        PTSUNNY   78  67  68 W20       29.91R
MUNCIE*        CLOUDY    79  65  62 W8        29.91R
INDIANAPOLIS   PTSUNNY   81  66  60 NW13      29.91S

$$
MIZ043>046-050>051-056>058-064>065-071>073-077>080-222300-
SOUTHWEST LOWER MICHIGAN

CITY           SKY/WX    TMP DP  RH WIND       PRES   REMARKS
BATTLE CREEK   MOSUNNY   72  58  61 NW17G30   29.88R
BENTON HARBOR  SUNNY     74  58  57 NW8G18    29.91R
COLDWATER*     SUNNY     76  56  50 NW10G23   29.86R
HILLSDALE*     MOSUNNY   75  61  60 W13       29.84S
HOLLAND        MOSUNNY   73  57  57 NW8G22    29.90R
GRAND RAPIDS   MOSUNNY   72  54  53 NW20G30   29.86R
KALAMAZOO      MOSUNNY   75  55  49 NW21G29   29.88R
STURGIS*       MOSUNNY   75  60  58 NW10G21   29.87R
THREE RIVERS*  PTSUNNY   75  60  58 NW15G23   29.88R

$$
OHZ001>008-015>018-024>025-222300-
NORTHWEST OHIO

CITY           SKY/WX    TMP DP  RH WIND       PRES   REMARKS
DEFIANCE       MOSUNNY   76  64  66 NW15G24   29.85R
FINDLAY        MOSUNNY   78  64  61 W13G22    29.83R
TOLEDO EXPRESS MOSUNNY   76  63  64 W21G31    29.82R
TOLEDO METCALF PTSUNNY   77  69  76 W10       29.82R
LIMA           MOSUNNY   79  66  64 W17       29.87R

$$
AND FOR LAKE MICHIGAN COASTAL AND OPEN LAKE BUOY OBSERVATIONS

STATION/POSITION TEMP    WIND        PRES    VSBY  WAVE
                 AIR SEA DIR/SP/G                  HT/PER
                 (F)     (DEG/KT/KT) (MB)    (MI)  (FT/S)
CALUMET HARBOR    79     310/ 11/ 19 1011.9R
MICHIGAN CITY     75     320/ 20/ 21   N/A
BURNS HARBOR      75     350/ 12/ 17 1012.9S
SAINT JOSEPH      74     350/ 16/ 21 1012.5
SOUTH LAKE BUOY   71 72  350/ 16/ 17 1011.9          3/ 5
4 MI NW BRIDGMAN  72 74   20/ 14/ 17 1012.7R         4/ 5
MICHIGAN CITY     74 74  360/ 16/ 19   N/A           3/ 4

$$
&&




USA.gov is the U.S. government's official web portal to all federal, state and local government web resources and services.